Location: Plymouth
(43.7490°N, 87.9770°W)
Time: 01:51:19
(UTC-05:00)

Daily predictions for brighter satellites

Satellite Brightness Start Highest point End
(mag) Time Altitude Azimuth Time Altitude Azimuth Time Altitude Azimuth
ATLAS 2AS CENTAUR R/B 3.8 02:37:58 47° NNE 02:37:58 47° NNE 02:43:35 10° NE
CZ-2D R/B 4.4 02:44:12 10° NE 02:46:21 20° ENE 02:46:21 20° ENE
Cosmos 2344 4.2 02:57:12 49° ESE 02:57:12 49° ESE 03:04:47 10° NE
NOSS 3-2 (A) 4.5 02:55:13 10° NNW 03:02:26 54° NE 03:10:15 10° ESE
Resurs 1-4 Rocket 3.8 03:06:11 10° NNE 03:09:10 30° NE 03:09:10 30° NE
Lacrosse 5 3.8 03:27:02 25° E 03:27:02 25° E 03:29:38 10° ENE
Cosmos 2333 Rocket 4.2 03:35:21 10° NNW 03:48:09 - SSE 03:36:54 19° NNW
NOSS 3-2 (C) 4.1 03:33:45 10° NW 03:41:10 71° NE 03:49:13 10° SE
Lacrosse 5 rocket 3.5 03:49:25 25° NNE 03:49:25 25° NNE 03:51:37 10° NE
SL-16 R/B 3.7 03:52:16 31° NNW 03:52:16 31° NNW 03:55:27 10° NNW
Cosmos 1934 Rocket 4.3 03:49:37 10° N 03:54:32 56° NNW 03:54:32 56° NNW
ARIANE 5 R/B 3.8 03:52:01 10° N 03:54:51 33° N 03:54:51 33° N
Cosmos 1605 Rocket 4.0 03:54:42 10° N 04:00:53 79° E 04:02:13 57° SSE
Cosmos 2237 Rocket 3.1 03:57:40 10° NNW 04:05:43 36° SSE 04:08:58 10° SSE
ATLAS 5 CENTAUR R/B 2.3 04:03:59 61° NNW 04:05:09 85° NE 04:11:38 10° SE
Cosmos 1025 Rocket 4.3 04:05:15 38° E 04:05:23 38° E 04:09:23 10° NNE
NOSS 3-4 (A) 3.5 04:05:23 70° S 04:06:01 77° ESE 04:12:35 10° NE
NOSS 3-4 (C) 3.5 04:05:28 69° S 04:06:08 76° ESE 04:12:42 10° NE
Cosmos 2112 Rocket 4.3 04:03:24 10° NNW 04:08:41 65° ENE 04:13:54 10° SSE
Cosmos 1680 Rocket 3.5 04:07:42 10° NNW 04:16:33 21° SSE 04:18:16 10° SSE
Cosmos 2219 4.3 04:21:34 29° NW 04:21:34 29° NW 04:25:32 10° N
Cosmos 1606 Rocket 4.3 04:17:40 10° N 04:21:57 51° ENE 04:25:38 13° SSE
Okean O Rocket 2.0 04:17:36 10° NNE 04:21:58 60° E 04:22:15 58° ESE
SL-16 R/B 2.9 04:18:07 10° NNW 04:23:42 53° ENE 04:29:14 10° SE
ATLAS 2AS CENTAUR R/B 4.3 04:25:24 23° NW 04:27:58 26° NNW 04:34:36 10° NNE
CZ-2D R/B 2.9 04:23:54 10° N 04:27:41 36° NW 04:27:41 36° NW
Cosmos 1726 Rocket 4.1 04:28:16 10° N 04:32:37 56° E 04:36:53 10° SSE
Meteor 1-13 Rocket 4.1 04:33:03 55° SW 04:34:20 74° WNW 04:40:04 10° N
Cosmos 2227 Rocket 2.1 04:35:40 59° WSW 04:36:38 73° WNW 04:42:20 10° NNE
Cosmos 220 Rocket 3.9 04:38:13 73° NNW 04:38:13 73° NNW 04:42:09 10° NNE
Cosmos 2061 Rocket 4.5 04:33:17 10° N 04:39:33 63° E 04:45:51 10° SSE
Cosmos 2100 Rocket 4.2 04:33:36 10° N 04:39:50 70° E 04:46:06 10° SSE
Meteor 2-8 Rocket 4.5 04:41:12 48° WSW 04:42:24 56° WNW 04:48:27 10° N
RESURS DK-1 2.2 04:45:27 78° WNW 04:45:27 78° WNW 04:49:37 10° NNE
Cosmos 2297 Rocket 2.1 04:43:50 43° SSW 04:45:48 84° WNW 04:51:30 10° NNE
Cosmos 1892 Rocket 3.9 04:43:29 23° S 04:46:13 66° E 04:50:40 10° NNE
Cosmos 1346 Rocket 2.9 04:45:29 47° SSE 04:46:30 72° E 04:50:30 10° NNE
Aureole 2 Rocket 3.8 04:43:48 10° N 04:47:06 37° ENE 04:50:07 10° SE
Okean 1-7 Rocket 4.5 04:48:46 33° NW 04:48:46 33° NW 04:51:47 10° N
IRS-1C Rocket 4.0 04:42:56 10° NNE 04:48:14 77° WNW 04:50:31 35° SSW
Thor Agena Rocket 3.8 04:43:56 10° SSE 04:49:12 74° ENE 04:54:31 10° N
PSLV R/B 4.5 04:46:15 10° NNE 04:50:29 48° E 04:54:37 10° S
Resurs 1-4 Rocket 3.3 04:46:29 10° N 04:50:15 26° NW 04:50:15 26° NW
Tiangong 1 1.8 04:53:55 47° ESE 04:53:55 47° ESE 04:56:16 10° E
CZ-2C R/B 3.7 04:51:41 36° SSW 04:53:19 59° W 04:57:56 10° NNW
NOSS 3-2 (A) 4.3 04:46:20 10° NW 04:53:20 42° WSW 05:00:47 10° S
Cosmos 2228 3.5 04:56:32 10° N 05:00:54 62° E 05:05:13 10° SSE
PSLV R/B 4.2 04:57:21 10° N 05:01:18 46° WNW 05:01:21 46° WNW
CZ-4B DEB 4.1 04:58:44 10° NNE 05:04:14 77° WNW 05:09:02 14° SSW
Cosmos 292 Rocket 3.7 04:59:26 10° NNW 05:04:15 63° WSW 05:09:02 10° S
Lacrosse 5 2.2 05:06:15 36° W 05:07:56 51° NW 05:12:53 10° NE
Cosmos 2098 Rocket 3.6 05:04:57 10° N 05:08:47 61° E 05:13:39 10° SSE
BREEZE M DEB (TANK) 3.1 05:09:00 34° WNW 05:10:17 53° N 05:18:49 10° ENE
Cosmos 2344 4.3 05:07:13 26° W 05:11:19 43° NW 05:20:08 10° NE
Cosmos 1000 Rocket 4.5 05:05:20 10° S 05:11:40 87° W 05:18:02 10° N
USA 215 4.3 05:08:13 10° S 05:12:33 22° SW 05:12:33 22° SW
Cosmos 2016 Rocket 4.1 05:07:40 10° N 05:14:04 85° E 05:20:21 10° S
Cosmos 1727 Rocket 4.5 05:13:05 26° WSW 05:15:50 38° WNW 05:21:42 10° N
DELTA 2 R/B (1) 4.1 05:13:35 26° SW 05:16:25 48° SSE 05:21:46 10° E
Cosmos 724 4.4 05:10:43 10° NW 05:16:52 62° WSW 05:22:58 10° SSE
Cosmos 2082 4.2 05:15:39 28° W 05:17:46 38° WNW 05:23:01 10° NNE
PAYLOAD B 4.3 05:12:43 10° N 05:18:04 53° WNW 05:22:15 16° SW
Cosmos 2173 Rocket 3.9 05:13:30 10° NNW 05:19:32 65° W 05:25:35 10° S
Cosmos 1898 Rocket 3.4 05:14:55 12° SSW 05:19:51 81° WNW 05:25:11 10° NNE
Meteor 1-15 Rocket 4.2 05:17:22 10° NNW 05:22:52 62° W 05:28:23 10° S
Meteor 1-31 Rocket 3.9 05:19:53 10° NNE 05:23:40 46° E 05:27:27 10° S
ADEOS Rocket 3.2 05:17:00 10° N 05:24:11 71° WNW 05:30:37 10° SSW
Cosmos 2058 Rocket 3.2 05:21:57 10° NNW 05:26:11 49° W 05:30:23 10° SSW
Cosmos 1459 Rocket 4.1 05:20:21 10° NNW 05:26:34 57° W 05:32:43 10° SSW
CENTAUR R/B 3.1 05:19:00 10° NW 05:26:51 88° SW 05:35:12 10° SSE
Okean-O 2.6 05:22:43 10° NNE 05:27:11 87° WNW 05:31:37 10° SSW
Lacrosse 5 rocket 3.7 05:25:09 11° NW 05:27:45 16° NNW 05:30:34 10° NNE
Cosmos 858 Rocket 4.4 05:24:09 10° SSW 05:29:24 75° WNW 05:34:43 10° NNE
CZ-4B R/B 3.7 05:25:55 10° N 05:29:56 36° WNW 05:32:25 20° WSW
NOSS 2-2 (D) 4.4 05:26:54 10° SSW 05:30:51 49° ESE 05:35:24 10° NE
USA 129 2.2 05:30:03 10° SSE 05:31:53 49° ENE 05:33:35 10° N
Cosmos 1937 Rocket 3.5 05:27:00 10° SSW 05:32:14 87° WNW 05:37:33 10° NNE
Cosmos 2123 Rocket 4.1 05:27:27 10° S 05:33:36 78° E 05:39:48 10° N
Cosmos 1666 3.8 05:35:47 10° NW 05:38:56 24° W 05:41:53 11° SW
Cosmos 1515 3.9 05:35:31 10° S 05:39:20 75° E 05:43:09 10° NNE
Feng Yun 1-1 Rocket 4.3 05:34:04 10° NNE 05:39:44 81° WNW 05:45:31 10° SSW
COSMO-SKYMED 1 3.8 05:35:54 10° SE 05:40:02 45° ENE 05:44:12 10° N
USA 116 4.3 05:37:20 10° S 05:42:18 54° W 05:46:49 10° NNW
Intercosmos 25 Rocket 4.4 05:39:35 10° N 05:43:03 52° E 05:47:58 10° SSE
Cosmos 1025 Rocket 4.4 05:42:12 18° W 05:43:08 19° WNW 05:46:17 10° NNW
OPS 6432 4.1 05:41:17 14° SW 05:44:04 79° NW 05:47:09 10° NE
CZ-4B R/B 3.9 05:39:19 10° N 05:44:08 34° WNW 05:49:00 10° SW
Okean 2 4.3 05:42:54 15° SW 05:45:37 28° WNW 05:49:15 10° NNW
EXPRESS MD2 3.6 05:43:30 17° WNW 05:46:02 62° SSW 05:52:21 10° SE
NOSS 2-2 (C) 3.8 05:42:03 10° SSW 05:46:09 71° SE 05:50:55 10° NE
ADEOS II 2.2 05:41:25 10° N 05:46:35 58° WNW 05:51:43 10° SSW
Cosmos 2237 Rocket 3.8 05:48:08 13° WSW 05:48:08 13° WSW 05:49:40 10° SW
NOSS 2-2 (E) 3.7 05:43:34 10° SSW 05:47:44 81° SE 05:52:41 10° NE
Meteor 2-15 4.4 05:42:11 10° SSW 05:48:09 62° W 05:54:11 10° N
ATLAS 5 CENTAUR R/B 3.7 05:45:47 12° WNW 05:49:21 19° WSW 05:53:41 10° SSW
Cosmos 1340 3.7 05:49:05 10° S 05:52:45 50° E 05:56:27 10° NNE
Cosmos 2227 4.3 05:49:11 10° SSW 05:54:57 89° WNW 06:00:45 10° NNE
Cosmos 1626 Rocket 3.6 05:53:22 10° SSW 05:57:41 59° W 06:02:00 10° N
Okean O Rocket 3.3 05:55:22 10° NNW 05:57:52 15° WNW 05:59:42 12° W
Radarsat Rocket 4.5 05:53:55 10° NNE 06:00:44 73° ESE 06:06:48 10° S
Meteor PRIRODA 4.3 05:59:00 10° N 06:02:27 35° WNW 06:05:51 10° SW
Iridium 4 Rocket 4.3 06:02:10 10° SSE 06:06:54 52° E 06:11:16 10° NNE
SL-16 R/B 3.2 06:02:59 10° NW 06:07:25 24° WSW 06:11:49 10° SSW
SL-24 R/B 3.9 06:08:05 10° N 06:12:29 84° WNW 06:16:22 10° SSW
SJ-6F 4.4 06:09:33 10° N 06:13:43 74° WNW 06:17:54 10° SSW
Cosmos 1066 Rocket 4.3 06:13:18 10° SSW 06:18:57 78° WNW 06:24:46 10° N
Cosmos 2233 Rocket 4.0 06:15:23 10° NNW 06:21:38 71° W 06:27:48 10° S
